Location: Düngen
(52.0952°N, 10.0219°E)
Time: 15:14:54
(UTC+00:00)

SL-14 R/B - Pass Details

Date: 11 March 2026
Orbit: 497 x 524 km, 82.4° (Epoch: 13 April)

Event Time Altitude Azimuth Distance (km) Brightness Sun altitude
Rises 19:41:55 0° 347° (NNW) 2,643 7.3 -22.5°
Reaches altitude 10° 19:44:04 10° 345° (NNW) 1,755 6.4 -22.7°
Maximum altitude 19:47:53 69° 263° (W) 560 3.4 -23.3°
Enters shadow 19:48:00 69° 247° (WSW) 562 3.3 -23.3°
